EWG911 EDDL-EDDH

Flight info

Callsign EWG911
Flight time N/A
Altitude 35000
Route MEVEL4T/23L MEVEL Y850 BASUM/N0443F340 Y850 PIXUR/N0444F330 Y850 MUBZI M105 RIBSO RIBSO3P
Aircraft A319/M-SDE3FGHIRWY/LB1

Departure

Time 2026-05-04 18:32
Airport Düsseldorf Airport (EDDL)

Arrival

Time N/A
Airport Hamburg Helmut Schmidt Airport (EDDH)
Time Latitude Longitude Altitude Speed Heading
2026-05-04 17:49 51.28109 6.76541 128 ft 0 kts 96°
2026-05-04 17:50 51.28312 6.77030 127 ft 0 kts 143°
2026-05-04 18:09 51.28019 6.76166 125 ft 0 kts 136°
2026-05-04 18:10 51.27614 6.76289 126 ft 0 kts
2026-05-04 18:14 51.27613 6.76289 126 ft 2 kts
2026-05-04 18:14 51.27587 6.76283 125 ft 4 kts
2026-05-04 18:15 51.27544 6.76282 125 ft 4 kts 298°
2026-05-04 18:15 51.27546 6.76339 127 ft 0 kts 249°
2026-05-04 18:20 51.27543 6.76327 126 ft 3 kts 249°
2026-05-04 18:21 51.27534 6.76291 127 ft 4 kts 249°
2026-05-04 18:21 51.27523 6.76244 128 ft 5 kts 249°
2026-05-04 18:21 51.27511 6.76196 126 ft 5 kts 249°
2026-05-04 18:21 51.27502 6.76144 129 ft 5 kts 254°
2026-05-04 18:22 51.27490 6.76078 129 ft 7 kts 251°
2026-05-04 18:22 51.27471 6.76005 130 ft 8 kts 249°
2026-05-04 18:22 51.27485 6.75928 127 ft 8 kts 318°
2026-05-04 18:22 51.27539 6.75890 129 ft 9 kts 340°
2026-05-04 18:23 51.27597 6.75845 130 ft 10 kts 333°
2026-05-04 18:23 51.27664 6.75810 128 ft 10 kts 356°
2026-05-04 18:23 51.27739 6.75808 130 ft 11 kts
2026-05-04 18:23 51.27824 6.75814 127 ft 13 kts
2026-05-04 18:24 51.27915 6.75815 128 ft 12 kts 360°
2026-05-04 18:24 51.27985 6.75817 129 ft 10 kts
2026-05-04 18:24 51.28046 6.75854 126 ft 10 kts 39°
2026-05-04 18:24 51.28091 6.75940 127 ft 10 kts 52°
2026-05-04 18:25 51.28138 6.76038 129 ft 12 kts 52°
2026-05-04 18:25 51.28191 6.76147 129 ft 13 kts 52°
2026-05-04 18:25 51.28250 6.76271 128 ft 15 kts 55°
2026-05-04 18:25 51.28317 6.76413 126 ft 17 kts 52°
2026-05-04 18:26 51.28392 6.76570 124 ft 18 kts 52°
2026-05-04 18:26 51.28472 6.76736 122 ft 19 kts 52°
2026-05-04 18:26 51.28551 6.76903 128 ft 19 kts 53°
2026-05-04 18:26 51.28629 6.77069 129 ft 19 kts 53°
2026-05-04 18:27 51.28711 6.77240 129 ft 20 kts 52°
2026-05-04 18:27 51.28796 6.77417 127 ft 20 kts 53°
2026-05-04 18:27 51.28884 6.77602 128 ft 21 kts 52°
2026-05-04 18:27 51.28974 6.77793 129 ft 22 kts 53°
2026-05-04 18:28 51.29067 6.77987 127 ft 22 kts 52°
2026-05-04 18:28 51.29158 6.78177 135 ft 20 kts 53°
2026-05-04 18:28 51.29232 6.78334 142 ft 15 kts 53°
2026-05-04 18:28 51.29289 6.78454 147 ft 12 kts 53°
2026-05-04 18:29 51.29323 6.78525 150 ft 0 kts 53°
2026-05-04 18:29 51.29326 6.78531 150 ft 1 kts 53°
2026-05-04 18:29 51.29327 6.78534 150 ft 1 kts 52°
2026-05-04 18:30 51.29447 6.78569 153 ft 12 kts 355°
2026-05-04 18:30 51.29522 6.78550 152 ft 9 kts 338°
2026-05-04 18:30 51.29525 6.78485 151 ft 0 kts 225°
2026-05-04 18:31 51.29361 6.78169 142 ft 81 kts 234°
2026-05-04 18:31 51.28869 6.77134 201 ft 142 kts 230°
2026-05-04 18:32 51.28269 6.75850 792 ft 144 kts 230°
2026-05-04 18:32 51.27668 6.74568 1434 ft 147 kts 230°
2026-05-04 18:32 51.27027 6.73170 1778 ft 168 kts 236°
2026-05-04 18:32 51.26828 6.71223 2098 ft 195 kts 281°
2026-05-04 18:33 51.27633 6.69454 2616 ft 208 kts 325°
2026-05-04 18:33 51.28380 6.68868 3027 ft 209 kts 340°
2026-05-04 18:33 51.29123 6.68601 3424 ft 210 kts 353°
2026-05-04 18:34 51.30644 6.68659 3888 ft 229 kts
2026-05-04 18:34 51.32305 6.68851 4211 ft 252 kts
2026-05-04 18:34 51.34132 6.69063 4617 ft 270 kts
2026-05-04 18:34 51.36030 6.69279 5271 ft 276 kts
2026-05-04 18:35 51.37958 6.69491 5977 ft 279 kts
2026-05-04 18:35 51.39907 6.69651 6526 ft 281 kts
2026-05-04 18:35 51.41865 6.69688 7015 ft 282 kts
2026-05-04 18:35 51.43831 6.69671 7513 ft 284 kts 360°
2026-05-04 18:36 51.45813 6.69638 8013 ft 286 kts
2026-05-04 18:36 51.47812 6.69613 8398 ft 290 kts
2026-05-04 18:36 51.49842 6.69603 8825 ft 291 kts
2026-05-04 18:36 51.51864 6.69602 9588 ft 290 kts
2026-05-04 18:37 51.53895 6.69607 10127 ft 296 kts
2026-05-04 18:37 51.56019 6.69615 10243 ft 314 kts
2026-05-04 18:37 51.58243 6.69771 10467 ft 324 kts
2026-05-04 18:37 51.60433 6.70666 10835 ft 327 kts 22°
2026-05-04 18:38 51.62465 6.72324 11233 ft 328 kts 34°
2026-05-04 18:38 51.64225 6.74663 11641 ft 329 kts 46°
2026-05-04 18:38 51.65654 6.77546 12051 ft 330 kts 54°
2026-05-04 18:38 51.67027 6.80554 12372 ft 335 kts 54°
2026-05-04 18:39 51.68421 6.83598 12699 ft 339 kts 54°
2026-05-04 18:39 51.69829 6.86667 13050 ft 342 kts 54°
2026-05-04 18:39 51.71250 6.89757 13403 ft 344 kts 54°
2026-05-04 18:39 51.72676 6.92862 13741 ft 346 kts 54°
2026-05-04 18:40 51.74110 6.95989 14033 ft 348 kts 54°
2026-05-04 18:40 51.75550 6.99128 14312 ft 350 kts 54°
2026-05-04 18:40 51.76958 7.02199 14965 ft 324 kts 54°
2026-05-04 18:40 51.78221 7.04950 15129 ft 292 kts 55°
2026-05-04 18:41 51.79423 7.07582 15301 ft 297 kts 55°